Location: Unspecified
(51.0950°N, 12.9690°E)
Time: 21:45:32
(UTC+00:00)

DMSP B5D2-2 - Pass Details

Date: 28 October 2021
Orbit: 789 x 806 km, 98.3° (Epoch: 01 December)

Event Time Altitude Azimuth Distance (km) Brightness Sun altitude
Rises 17:32:04 0° 19° (NNE) 3,317 7.1 -16.6°
Reaches altitude 10° 17:34:34 10° 27° (NNE) 2,380 6.3 -17.0°
Maximum altitude 17:39:30 40° 97° (E) 1,158 4.4 -17.8°
Drops below altitude 10° 17:44:23 10° 166° (SSE) 2,353 6.4 -18.6°
Sets 17:46:49 0° 174° (S) 3,276 7.2 -19.0°
